RH
22 31 39 44 48 60 69 65 62 61 61 70 77 68 63 63 56 52 49 42 27 20 22 22 20 15 23 22 15 26 33 31 27 26 27 29 30 38 48 53 60 66 72 71 70 80 92 99 99 100 100 98 96 94 92 93 95 94 97 96 95 96 98 100 101 99 98 95 92 90 88 88 86 83 80 77 74 73 73 72 71 70 68 65 63 60 57 54 51 50 48 44 37 28 21 15 12
25 31 40 48 55 64 69 67 62 55 52 57 59 55 57 57 52 49 45 38 27 28 31 23 19 17 21 19 24 41 44 39 33 30 31 32 31 37 41 45 52 60 72 80 83 86 91 97 98 99 100 97 90 88 91 94 93 90 93 96 93 94 96 98 101 101 100 100 98 97 96 93 92 91 87 83 79 74 72 71 72 71 70 69 66 63 57 51 47 45 44 43 39 32 25 20 16
24 33 46 54 57 59 61 63 62 56 52 48 46 48 51 52 51 48 42 36 30 31 30 22 18 19 22 24 35 41 38 35 33 33 34 34 32 32 33 36 43 51 63 74 87 95 95 96 96 95 94 95 89 87 93 97 96 92 94 96 93 92 96 99 101 100 100 100 99 100 99 97 93 91 87 82 80 76 72 68 66 66 68 68 66 64 58 50 43 39 38 37 34 29 26 22 19
27 37 49 54 56 54 52 56 57 56 55 47 43 45 46 47 46 45 40 36 35 32 27 21 16 21 25 30 37 37 34 34 32 31 29 28 27 27 28 31 36 42 50 57 69 82 88 89 91 90 87 92 91 90 96 98 99 97 97 98 96 95 97 100 101 100 100 100 99 99 98 98 93 88 87 82 77 73 73 72 65 61 61 62 61 58 54 50 44 37 34 32 28 27 28 25 21
37 44 51 53 51 48 50 52 48 45 48 45 41 42 42 43 42 40 38 37 38 32 24 18 15 19 23 28 33 31 31 30 28 26 26 27 26 26 27 27 31 35 40 43 50 62 75 80 83 85 83 88 90 93 98 98 100 99 99 100 99 99 99 100 100 100 99 100 98 95 93 93 92 91 88 81 77 73 70 72 71 65 60 57 56 54 51 48 44 38 34 30 25 25 31 30 24
44 47 49 46 41 45 48 45 41 39 41 40 39 40 40 40 40 39 37 37 33 26 19 14 15 17 18 22 24 24 25 24 25 26 27 28 27 28 28 28 28 31 34 38 42 48 59 68 75 81 84 85 85 90 98 100 100 100 99 100 101 99 99 100 100 100 99 100 100 97 94 92 90 90 86 78 76 75 69 71 75 74 67 60 57 57 55 50 45 39 35 31 26 27 32 35 31
45 45 41 37 37 42 39 36 38 38 38 38 38 38 37 37 38 37 34 29 22 17 14 13 15 14 16 19 18 20 20 19 23 24 25 27 28 30 30 31 30 30 32 36 43 47 53 60 68 76 83 85 84 87 95 100 99 100 100 99 100 100 100 100 99 100 99 99 100 99 97 93 90 91 93 86 77 74 77 81 84 83 78 72 68 66 65 60 51 42 39 34 30 32 30 41 54
39 38 36 32 30 33 31 32 35 34 35 36 36 35 33 32 31 29 24 18 14 13 13 14 14 14 17 19 17 19 20 22 25 24 23 24 25 26 28 32 35 37 38 40 44 50 54 59 66 74 81 88 90 88 90 97 100 100 100 99 100 100 100 100 99 99 100 99 99 99 97 95 95 96 96 91 82 79 85 87 86 84 82 81 79 76 76 69 57 47 44 39 33 35 34 46 69
30 31 35 32 26 27 28 28 30 31 32 32 30 29 26 24 22 18 15 13 12 12 13 14 15 16 18 18 19 23 25 27 27 25 24 24 25 28 32 36 41 46 49 51 50 53 56 59 64 70 78 87 94 94 91 90 96 99 99 100 100 100 100 100 99 99 100 100 100 98 96 98 99 98 91 86 85 87 92 91 89 86 83 83 79 80 79 71 64 59 55 50 41 41 46 49 59
23 25 28 30 27 24 25 25 27 29 28 27 24 21 19 16 15 13 13 12 12 11 12 14 15 14 15 17 21 24 24 24 22 22 23 26 31 36 39 41 44 46 46 48 48 49 51 55 59 64 71 78 87 95 97 91 92 97 100 100 99 100 100 100 100 100 100 99 100 97 96 99 99 97 90 87 88 89 94 96 96 94 91 88 82 79 75 71 72 74 73 70 60 54 59 58 60
18 19 22 25 26 22 24 27 27 27 25 24 20 15 13 12 12 12 12 11 12 12 13 14 13 13 14 17 19 19 18 17 16 19 23 27 31 33 35 35 35 35 35 35 35 36 38 43 48 54 61 68 76 85 93 95 93 95 97 99 100 100 99 100 100 99 100 99 100 99 99 100 99 98 94 94 94 91 92 96 99 98 98 95 90 85 78 78 79 80 87 87 78 70 68 69 71
15 16 21 21 24 23 25 27 24 25 23 19 15 12 11 11 12 11 10 11 12 13 14 13 12 14 15 16 15 15 15 13 14 18 20 21 21 22 22 23 22 23 24 25 27 30 33 36 40 44 50 57 65 72 81 88 91 92 93 96 98 99 99 100 100 99 99 100 100 99 100 101 100 100 99 99 99 96 95 96 99 99 99 98 95 90 86 87 88 87 92 96 91 83 74 72 72
13 16 19 17 25 27 26 26 23 21 18 14 11 11 12 12 11 9 9 10 11 12 11 9 11 13 13 13 11 13 13 11 11 11 10 9 8 8 9 10 10 12 12 16 23 30 37 43 47 48 50 53 58 64 70 76 81 86 88 91 94 97 98 98 99 100 99 99 100 99 99 100 100 99 98 99 98 99 99 99 99 100 99 99 98 95 93 92 95 95 89 88 89 88 78 69 68
12 13 15 15 26 30 25 22 17 14 12 12 11 12 13 11 10 9 9 10 9 10 8 9 13 11 9 9 9 11 10 7 6 6 6 5 5 5 5 6 6 6 5 8 17 30 43 53 57 57 57 58 60 64 69 74 77 81 84 87 90 94 95 96 97 99 99 99 100 99 99 100 100 99 96 97 98 98 100 100 100 100 99 99 99 99 98 96 98 98 88 80 77 79 77 69 68
11 10 12 16 25 27 22 16 12 11 12 13 13 12 12 10 9 8 9 9 8 8 9 13 14 8 6 6 7 8 6 5 6 6 10 11 12 13 13 14 13 12 10 6 15 35 51 60 64 65 64 64 66 69 73 78 82 84 86 86 86 87 89 91 92 93 95 97 98 99 100 99 100 100 98 99 99 99 100 100 100 100 100 99 99 99 99 99 98 98 94 89 84 80 78 74 72
10 10 11 16 18 17 14 11 11 12 12 13 12 12 11 9 8 8 8 7 8 10 13 13 9 5 5 5 6 7 6 7 8 10 15 18 20 21 22 23 23 23 16 8 20 45 60 66 69 70 70 70 71 74 77 82 87 90 90 89 86 83 81 81 83 84 86 88 91 95 99 99 99 99 100 100 99 100 99 100 100 99 100 99 99 100 99 100 99 99 98 95 93 89 84 81 77
9 10 10 11 10 10 10 11 11 11 12 13 12 12 10 8 7 7 7 7 9 12 12 9 5 5 4 5 7 9 10 10 12 16 19 22 24 26 27 28 27 21 11 10 29 52 63 69 72 73 74 74 75 77 81 85 90 93 93 91 88 85 82 79 77 77 78 79 81 84 89 94 98 99 100 100 99 100 100 99 100 100 100 100 99 100 100 100 100 99 100 98 97 94 89 85 85
8 8 8 8 8 9 10 10 11 11 12 12 12 10 9 8 7 7 7 8 10 10 8 5 5 5 5 7 10 12 14 15 17 20 22 25 26 28 29 27 20 10 6 18 38 49 57 66 72 74 75 76 78 79 83 86 89 92 93 91 88 85 84 82 80 77 77 76 77 77 79 82 88 95 98 99 100 99 100 99 100 100 100 100 100 100 99 100 100 99 99 100 100 99 95 91 91
7 8 8 8 9 9 9 11 12 12 11 10 10 10 8 7 7 8 8 8 8 7 6 5 6 6 9 12 15 17 18 20 21 22 24 26 27 27 22 14 6 5 10 23 36 43 47 54 62 70 74 75 77 79 81 83 86 86 86 86 84 82 82 84 84 83 81 77 75 75 76 75 76 81 88 94 98 99 100 100 100 100 100 100 99 100 100 99 100 100 100 100 99 99 99 98 95
8 8 8 8 9 10 11 12 13 12 11 9 10 9 8 7 7 8 7 7 6 5 6 6 8 11 14 17 19 21 22 23 23 24 25 25 25 20 10 3 3 7 16 25 34 39 42 46 53 62 69 73 75 76 78 79 80 80 80 79 80 80 80 82 85 86 86 83 78 75 75 75 73 72 74 80 87 93 96 98 98 99 99 100 100 100 100 100 100 99 100 100 99 98 99 100 99
9 9 9 9 10 11 12 13 14 13 11 10 10 9 8 7 7 7 6 6 5 5 7 8 12 16 18 20 22 24 24 25 25 26 27 26 24 15 4 3 6 10 20 30 33 34 36 40 44 50 58 65 68 69 71 73 74 74 74 74 74 76 78 80 82 85 86 87 83 79 77 75 74 71 69 69 73 79 86 90 93 94 95 96 97 98 99 100 100 98 97 97 97 99 99 99 100
9 9 9 10 10 13 14 13 14 12 11 11 10 9 8 7 6 6 5 5 5 6 9 11 15 18 20 22 24 25 25 26 27 27 28 27 22 11 4 5 8 13 21 27 28 26 26 29 33 37 43 51 57 61 61 63 64 65 67 67 67 69 72 75 78 82 84 86 85 83 80 77 76 73 71 69 69 71 75 80 83 86 88 90 90 91 91 93 95 94 92 94 96 99 99 99 99
10 9 10 10 11 14 14 14 14 12 14 13 11 9 8 7 6 6 6 6 6 8 10 13 15 18 20 22 24 26 26 27 28 28 29 25 15 7 5 6 9 12 16 19 19 19 21 23 25 27 30 35 41 47 50 51 54 56 58 58 58 59 61 65 70 75 79 82 83 82 81 78 77 76 75 75 75 74 75 77 77 79 81 84 86 87 88 87 90 91 89 89 92 95 98 99 99
10 10 10 11 11 13 12 13 15 14 16 15 11 9 8 7 7 7 7 6 8 10 12 14 16 19 21 23 25 26 27 28 29 29 29 20 7 5 6 6 9 11 13 15 16 17 19 19 19 19 20 22 25 29 33 36 41 45 49 50 50 50 51 53 56 61 68 73 76 77 77 77 76 77 79 80 83 84 82 79 78 78 79 79 79 83 88 89 90 92 92 90 88 89 92 95 97
10 9 10 11 12 12 12 14 17 18 18 14 10 9 8 8 8 8 8 8 10 12 13 15 18 20 21 24 25 26 27 28 29 30 27 16 4 4 6 5 7 8 9 11 13 15 15 14 13 13 12 13 14 15 16 18 22 28 35 41 43 44 44 44 45 47 52 58 65 70 72 73 73 74 77 81 87 91 92 88 85 84 83 81 77 75 79 86 90 91 94 96 94 92 91 91 91
9 10 11 11 13 15 16 18 19 19 16 14 12 10 8 8 9 9 9 10 12 13 15 17 19 21 22 24 26 26 28 29 29 29 26 16 6 4 4 6 7 7 8 9 11 13 14 15 16 16 15 16 16 15 14 13 12 13 16 22 28 33 36 38 39 40 41 45 51 59 65 68 70 71 74 78 83 88 94 95 93 91 90 89 86 80 76 77 83 87 89 94 99 98 96 92 87
10 12 12 11 15 18 20 20 17 17 16 15 12 9 9 10 10 10 10 12 14 15 17 19 20 22 24 25 27 27 28 30 29 29 27 18 9 6 6 9 10 8 7 8 11 13 15 18 19 21 22 23 24 23 23 22 20 18 15 13 13 15 19 24 29 31 35 38 40 45 53 59 64 68 71 75 78 82 89 94 96 93 91 94 92 90 86 80 79 82 83 86 93 99 98 95 89
13 15 13 12 14 17 21 20 16 15 15 14 11 10 11 11 12 11 11 13 15 16 18 20 22 23 25 26 28 29 30 31 30 30 27 19 12 12 15 17 13 7 6 8 11 14 17 20 21 24 26 27 28 28 28 28 27 26 25 24 19 14 11 10 13 16 22 28 33 37 42 47 53 59 65 70 75 78 82 88 95 94 89 90 91 92 94 92 87 87 87 83 84 93 99 98 94
15 16 15 15 14 16 19 17 15 16 16 15 12 11 12 12 13 13 12 14 16 17 19 21 22 24 25 27 29 30 32 32 32 32 27 18 15 20 26 25 16 8 5 6 10 15 19 22 24 25 27 29 30 31 31 29 28 28 28 29 29 27 23 17 11 7 8 12 20 27 33 38 42 48 54 61 68 73 77 80 87 94 93 91 90 90 95 98 94 90 92 92 87 89 97 101 99
15 17 17 16 15 16 16 15 16 17 17 16 14 13 13 13 15 14 14 16 17 18 20 22 23 24 26 27 30 31 33 33 32 32 26 19 20 26 31 29 19 10 5 4 8 15 21 24 26 28 29 31 33 34 34 32 31 30 30 31 32 32 33 32 27 18 10 5 7 12 19 28 34 40 45 49 57 64 71 75 79 86 92 94 93 91 94 99 96 90 88 92 95 93 94 98 100
15 18 18 15 15 15 14 16 16 17 17 15 14 15 13 14 16 16 16 17 18 20 21 22 23 25 26 28 30 32 33 33 33 33 27 22 24 30 34 31 20 9 4 3 7 14 22 27 29 31 33 34 36 37 37 36 36 36 36 37 38 37 37 37 38 34 27 15 6 5 8 16 24 30 36 40 45 51 59 67 73 77 83 90 94 94 94 97 98 95 90 88 92 95 95 95 98
16 17 17 15 15 14 14 17 16 15 16 15 16 17 14 15 17 17 17 19 20 21 22 23 24 25 27 29 30 32 34 33 34 34 29 26 28 32 35 31 20 10 5 3 6 15 24 29 32 34 36 38 40 41 40 40 42 44 44 45 46 48 48 46 45 44 42 30 13 6 7 9 15 19 24 30 35 40 46 52 61 68 74 79 86 91 93 96 97 97 96 90 87 90 93 93 92
17 17 18 17 16 15 15 16 16 15 15 15 18 18 15 16 18 17 19 20 21 21 23 23 25 26 28 30 31 33 34 34 36 35 31 30 31 34 36 29 18 9 4 3 9 19 27 31 34 36 37 39 40 41 42 42 43 44 46 47 48 50 56 59 58 54 51 40 19 10 13 9 10 13 16 21 25 29 35 40 46 54 63 70 75 81 85 89 92 94 95 93 88 86 88 89 88
18 19 20 19 18 18 17 16 16 16 15 16 17 17 15 17 19 19 20 22 22 22 23 24 25 27 29 30 32 34 35 36 38 37 34 34 33 36 35 24 13 5 2 5 13 23 30 33 35 36 36 35 36 37 38 39 40 41 42 43 43 46 56 65 69 66 60 48 25 14 17 13 8 9 10 14 18 21 24 28 33 39 49 59 65 72 76 79 83 86 88 90 89 87 85 85 85
20 21 21 22 20 20 20 18 16 16 16 17 18 17 16 19 20 20 22 22 22 22 24 25 26 28 30 31 33 35 36 37 39 38 36 35 35 35 30 18 7 2 2 7 17 27 33 35 35 36 35 33 34 35 35 37 40 41 41 41 41 44 51 60 70 74 69 55 33 18 21 21 16 12 8 9 13 16 17 19 22 26 36 46 51 56 63 71 75 78 81 81 82 83 84 83 81
23 23 23 25 24 21 22 20 17 17 18 18 20 19 18 21 21 21 23 23 23 24 25 26 27 29 31 33 35 36 37 38 39 38 36 36 35 31 24 14 6 2 3 8 21 31 35 35 34 34 35 32 31 31 30 33 38 40 38 37 37 41 47 53 63 73 72 60 40 26 26 28 25 20 14 9 9 12 14 15 16 17 25 33 35 35 41 52 63 70 75 77 76 76 76 76 75
24 25 26 27 26 23 22 21 18 19 20 19 21 22 20 22 22 22 24 23 23 24 26 27 29 30 32 34 36 37 38 38 38 38 36 35 33 28 20 11 5 2 3 12 25 33 36 35 34 33 33 30 28 26 24 26 30 33 34 34 33 37 44 51 60 69 70 62 48 37 34 33 31 29 23 16 10 7 9 11 12 12 15 21 22 20 23 31 44 56 66 72 75 75 73 71 70
25 27 29 28 28 24 21 21 20 20 22 21 22 23 22 23 23 23 24 24 24 25 27 29 30 32 34 35 37 38 39 38 38 38 37 37 35 28 19 10 4 2 4 16 28 34 35 35 35 34 31 27 26 25 23 24 27 31 32 34 33 34 42 51 59 67 67 62 55 46 40 37 36 35 32 28 22 16 12 9 9 9 9 11 13 12 13 17 26 39 52 62 68 73 74 72 71
27 29 30 30 30 25 22 22 22 22 23 22 23 25 24 22 23 24 25 24 25 27 29 31 32 33 35 36 37 38 39 38 39 40 39 38 34 28 19 9 3 2 6 18 30 34 33 34 35 34 29 25 24 24 25 25 28 32 34 35 34 33 39 49 57 65 65 60 55 48 40 37 38 39 38 37 36 33 29 24 20 16 12 9 8 8 8 10 14 23 36 49 58 64 70 73 73
28 30 31 31 31 29 26 23 21 22 24 25 26 26 24 22 24 25 25 25 26 29 31 32 34 35 36 37 38 39 39 39 40 41 41 38 33 29 20 8 2 2 8 20 30 33 31 32 34 32 27 24 24 24 25 26 28 33 36 36 36 35 37 44 53 61 64 61 56 49 42 39 39 42 43 42 43 44 43 40 36 31 25 19 14 9 6 6 7 12 22 34 46 53 60 67 71
29 30 32 32 31 31 28 24 22 23 25 26 28 29 25 23 26 26 26 26 27 31 34 35 36 37 38 38 38 39 39 40 42 42 43 39 34 31 18 5 1 2 9 21 29 31 30 31 32 29 26 24 24 23 24 25 27 31 36 38 38 37 37 41 47 54 59 58 56 52 48 45 43 43 44 44 45 47 47 47 45 42 38 33 26 19 12 9 7 7 10 18 29 39 49 58 65
29 30 32 33 32 30 27 25 25 25 27 27 31 40 36 25 26 28 27 27 28 32 36 37 39 39 39 39 39 40 40 41 43 43 43 39 36 31 14 3 2 2 10 21 28 29 29 30 30 27 25 25 24 24 23 23 24 29 34 37 37 37 38 40 43 48 51 52 53 53 53 50 48 48 48 48 49 49 48 47 46 44 42 39 35 30 24 19 15 11 9 9 14 23 33 43 53
30 32 33 34 33 30 27 25 26 27 29 28 32 45 43 29 27 29 28 29 30 33 38 40 42 42 41 41 41 41 43 43 44 45 43 40 38 28 11 2 2 2 9 21 28 29 29 29 29 26 24 25 24 23 22 21 22 27 31 34 36 37 39 40 40 43 46 48 50 51 53 53 53 52 51 51 50 48 46 46 46 46 44 42 40 38 34 30 25 20 16 12 10 12 17 26 36
31 32 34 35 31 29 27 25 28 29 30 30 32 39 40 33 30 30 29 31 32 33 39 42 44 46 45 44 43 44 45 45 45 45 42 42 39 24 9 4 2 2 8 19 29 30 28 29 29 27 24 23 23 22 21 21 21 23 27 31 35 37 40 42 42 43 44 46 47 48 49 50 50 50 49 49 48 48 48 49 49 49 47 45 43 42 40 38 34 30 27 22 16 12 10 13 19
32 33 36 36 32 31 28 26 30 31 33 34 31 34 41 38 31 31 32 32 33 35 39 44 46 48 49 47 47 46 47 47 46 45 43 43 36 20 10 5 1 2 6 17 29 30 28 29 29 27 25 23 22 21 21 22 21 21 24 29 33 36 39 42 44 45 46 47 48 48 49 49 49 49 49 49 50 50 50 50 49 48 47 46 44 43 41 40 39 37 34 31 26 21 16 13 13
33 34 37 35 32 31 29 30 33 34 38 37 31 33 44 45 33 30 35 35 34 37 40 45 47 49 51 51 50 50 49 50 49 46 44 42 32 20 13 6 1 2 5 15 28 31 29 30 30 28 25 23 21 20 20 21 20 21 24 27 31 35 37 40 42 43 45 46 47 48 48 49 49 49 49 49 50 49 49 49 48 47 46 45 44 42 41 40 38 37 36 35 33 30 27 24 21
34 35 38 34 33 34 32 32 33 40 46 39 31 33 44 50 38 31 37 37 36 39 43 47 48 50 53 53 53 53 52 53 51 48 45 39 30 21 15 7 2 2 4 13 26 31 30 31 32 29 26 24 20 18 20 20 20 21 23 26 29 33 37 39 40 42 44 45 46 47 47 48 48 49 49 49 50 51 51 51 50 50 48 47 46 44 42 40 39 37 36 34 33 33 33 31 29
34 37 38 34 34 35 33 33 36 48 54 40 33 37 44 51 42 34 38 38 39 43 46 49 51 52 54 55 56 56 56 55 54 51 46 38 30 24 18 9 3 2 3 10 23 31 31 32 34 30 27 25 20 19 20 20 21 21 22 25 27 31 36 38 41 42 44 46 47 49 49 50 51 52 53 53 53 54 53 53 53 53 53 52 52 50 48 45 42 40 38 36 34 33 33 34 32
36 37 37 39 46 47 48 52 51 51 49 39 39 44 45 46 39 35 40 41 43 48 49 52 53 54 56 57 58 58 58 58 56 54 47 39 32 26 20 12 4 2 2 6 18 29 32 32 34 32 28 26 23 21 21 20 22 22 22 24 26 29 33 36 40 42 44 46 48 50 51 53 55 55 55 55 56 55 55 56 56 55 56 57 57 58 57 54 50 46 43 40 39 36 34 34 33
38 38 39 45 55 61 67 70 65 58 48 40 43 48 46 40 35 37 42 44 48 51 53 55 55 57 58 58 60 60 60 60 59 55 49 42 36 29 23 15 6 3 2 4 13 25 32 33 34 34 29 27 25 23 22 21 22 23 24 25 26 29 31 34 37 40 43 46 48 50 52 53 55 56 56 56 56 56 57 59 60 60 61 61 62 63 63 63 60 55 51 47 44 42 40 37 35
38 39 41 43 47 53 61 65 62 58 52 44 42 46 45 39 36 39 42 46 50 52 54 57 57 58 59 60 62 62 62 62 61 58 52 46 40 33 27 19 10 4 2 3 9 20 30 33 34 35 32 29 27 25 23 22 23 25 25 26 28 30 32 33 36 39 42 45 47 49 51 53 55 56 56 58 59 60 63 65 67 68 67 67 67 67 68 68 66 62 59 55 51 48 46 44 42
38 40 41 43 45 46 50 53 48 47 58 58 46 41 39 36 35 38 42 46 49 52 54 56 58 59 60 62 65 65 64 64 64 61 56 51 45 38 31 23 15 7 3 2 6 15 26 33 33 35 35 31 29 28 25 23 24 26 26 28 30 31 33 34 36 39 41 44 47 49 51 53 56 58 59 61 63 65 69 72 74 74 74 73 73 73 73 74 73 68 64 61 59 55 52 49 48
39 40 42 44 46 44 47 50 46 52 70 65 45 39 37 34 36 36 40 45 46 50 53 55 59 60 61 65 67 68 68 66 66 64 61 57 52 44 36 28 20 12 5 2 3 10 20 30 34 35 37 35 31 30 28 24 25 27 26 28 30 31 32 33 34 37 39 43 46 49 52 55 57 60 62 64 66 68 71 75 78 78 78 79 80 79 78 80 80 76 68 64 63 62 59 55 52
41 42 43 44 45 46 49 53 59 72 83 66 45 44 44 41 40 36 38 45 45 49 53 55 60 61 63 66 68 71 72 70 69 67 65 63 60 52 42 33 26 17 9 3 2 5 13 24 32 35 37 38 35 33 31 27 24 27 28 28 29 30 31 32 33 35 38 41 45 48 52 55 57 60 63 65 67 69 73 76 78 79 80 82 85 86 85 85 86 85 76 68 66 66 63 60 57
42 42 44 44 46 50 50 53 64 77 86 75 54 49 45 39 37 35 38 43 43 48 53 56 60 62 64 68 70 73 74 75 74 70 69 68 66 61 50 40 32 22 14 7 3 3 6 16 28 35 37 39 38 35 34 31 26 25 28 28 29 30 30 32 33 34 36 39 43 47 50 54 57 60 63 67 69 71 73 75 76 77 78 81 85 89 91 90 90 91 85 74 68 68 66 64 63
42 43 45 45 46 50 50 54 60 65 79 85 73 61 45 29 30 35 38 40 42 47 52 55 59 62 66 69 71 74 76 78 78 74 73 73 72 68 60 50 40 28 19 11 4 3 3 8 21 33 37 39 41 39 36 35 31 26 26 28 29 30 30 31 32 33 35 37 40 44 48 52 56 59 63 67 70 72 73 74 75 77 78 80 83 86 91 94 93 92 91 82 72 68 69 67 66
42 42 45 46 46 49 52 55 53 54 72 87 88 77 44 19 28 36 34 38 41 45 49 51 54 59 64 69 71 74 76 78 78 76 76 77 77 74 68 60 50 37 26 16 8 4 2 4 12 25 36 39 41 42 39 37 36 31 27 26 28 30 29 30 31 32 33 35 39 42 46 50 54 58 62 66 69 72 74 75 76 77 77 78 81 83 87 95 98 95 93 89 78 69 69 69 66
40 41 44 46 48 50 56 65 59 53 62 68 76 78 44 16 27 33 30 37 40 43 48 47 49 55 61 65 68 72 74 75 76 76 78 81 82 79 75 68 59 47 35 23 14 7 3 3 6 15 29 38 41 44 43 40 38 36 32 28 27 29 30 30 31 31 32 34 36 39 43 47 52 56 60 63 66 70 73 76 77 77 77 77 79 82 84 91 99 100 95 94 87 74 68 68 67
Wind_Speed
15 16 16 16 16 16 16 15 18 17 17 23 20 15 14 10 6 8 13 16 17 18 21 23 24 24 21 22 23 21 18 18 18 18 19 20 22 23 24 25 25 26 26 26 24 22 23 25 27 27 27 26 27 28 28 30 32 33 30 25 17 12 14 19 25 31 33 34 35 35 34 32 30 28 27 28 27 26 26 26 26 27 27 27 26 25 25 25 25 26 25 26 25 23 24 25 26
17 18 20 19 17 17 16 15 17 14 15 23 20 16 13 7 6 10 15 17 18 19 21 24 27 27 25 25 24 20 17 17 18 19 20 20 21 22 24 25 26 27 27 28 27 25 24 24 27 29 30 29 29 30 30 32 33 34 33 31 24 16 16 13 12 18 24 27 29 30 31 32 33 31 28 27 27 27 26 26 26 27 28 28 28 27 26 26 26 26 26 26 26 25 24 24 25
19 22 23 20 17 16 17 16 14 10 15 22 18 14 10 9 9 11 14 16 18 19 21 24 26 25 25 25 22 20 20 21 22 23 23 22 23 23 24 25 26 27 28 29 28 28 27 26 26 29 31 31 31 31 31 33 34 35 34 36 30 22 21 16 10 12 16 21 22 22 24 26 29 30 28 26 26 26 26 27 27 27 27 27 28 28 27 27 27 26 27 27 27 27 26 25 25
21 23 22 18 15 15 17 18 15 13 15 15 14 11 9 10 10 10 12 13 14 16 19 23 24 24 24 24 22 22 23 25 26 26 27 27 28 27 26 27 27 28 28 29 29 29 30 29 28 28 31 32 33 32 32 33 34 35 35 38 36 27 24 20 16 17 19 23 23 22 24 24 26 26 25 26 25 24 24 25 26 26 26 26 26 28 29 28 28 27 28 28 28 27 27 27 26
23 22 20 16 13 13 15 17 14 14 15 10 10 9 7 8 8 9 11 12 14 17 21 24 23 23 24 23 23 24 25 27 28 29 30 31 31 31 29 29 29 30 30 30 30 31 31 32 31 29 31 33 34 33 33 35 34 35 35 36 36 30 27 25 22 24 25 27 29 28 28 27 26 24 24 25 25 24 24 24 25 26 26 25 26 27 28 29 28 28 29 28 28 28 28 28 26
24 21 18 14 12 13 13 16 14 15 15 9 9 7 5 5 5 8 11 14 17 20 22 23 23 23 24 24 25 26 28 29 29 30 31 32 33 32 31 31 31 32 33 33 33 32 33 33 33 32 32 33 35 35 35 37 37 35 32 30 31 29 25 23 21 25 26 25 27 29 29 28 27 25 26 25 26 26 25 25 25 26 26 26 26 26 28 29 28 28 29 28 28 28 27 27 26
21 18 16 13 13 13 12 15 17 16 13 6 6 5 4 4 6 8 12 16 19 22 23 24 24 24 24 25 26 28 28 29 30 31 32 33 34 34 33 33 33 33 34 35 36 35 34 34 34 34 33 33 35 37 37 39 40 36 30 26 27 28 25 24 22 23 26 26 25 26 28 28 26 27 27 25 25 25 25 27 27 26 27 26 26 26 27 28 28 28 28 28 28 27 27 25 25
18 16 14 12 13 13 13 15 15 14 10 5 3 2 4 7 9 11 16 20 22 22 23 24 24 23 23 24 26 28 28 28 29 30 32 34 35 36 37 36 35 34 34 35 37 38 37 35 35 35 34 35 35 38 39 41 43 42 38 33 30 29 29 31 30 26 28 30 28 25 26 29 28 28 27 26 26 26 27 29 29 29 29 27 25 25 26 27 27 27 26 27 27 27 26 24 24
15 15 14 11 12 13 13 13 13 11 7 3 2 5 8 10 12 15 18 22 23 23 23 23 23 22 23 25 26 27 28 28 29 31 33 35 37 38 38 38 37 36 35 35 36 38 39 38 37 36 35 35 36 38 40 42 44 46 48 45 40 36 33 33 32 30 30 32 33 29 27 29 30 29 28 27 28 29 29 30 31 31 31 29 28 26 26 26 26 26 25 25 26 26 25 24 24
13 13 12 10 10 11 11 11 11 8 4 4 6 9 12 14 16 18 19 20 22 24 25 24 24 24 25 27 28 28 29 30 32 34 35 35 36 36 37 38 38 38 37 36 36 37 39 40 40 39 38 37 38 39 40 43 45 47 50 50 49 45 40 35 31 32 34 34 34 33 31 31 31 30 28 27 29 29 30 30 32 32 32 32 32 30 29 27 26 25 24 24 24 24 23 22 22
11 10 9 10 9 8 10 10 9 6 4 6 10 13 15 16 18 19 19 20 21 23 25 24 24 26 28 29 29 30 31 32 33 34 34 34 35 36 37 38 39 40 40 39 38 38 38 39 40 40 40 39 39 40 41 42 44 47 49 51 51 49 44 40 36 33 32 31 31 31 33 33 32 32 30 29 29 30 30 30 31 33 32 32 32 31 31 29 27 25 24 23 23 24 24 22 23
9 9 8 9 8 7 9 8 6 3 3 7 12 14 16 18 19 19 20 21 21 21 21 23 25 28 29 29 30 30 31 33 33 33 34 35 36 38 39 40 41 42 42 42 41 39 37 37 37 38 39 40 39 40 41 42 43 45 47 49 49 48 44 42 41 40 36 32 28 27 30 32 33 32 31 30 31 33 34 33 34 34 34 33 32 32 32 31 28 25 25 25 24 24 25 25 24
7 8 6 7 8 6 6 4 2 2 7 10 12 14 15 17 20 21 23 22 21 20 22 26 28 29 28 29 29 30 32 34 34 34 36 37 37 38 40 41 43 44 45 44 42 39 37 35 35 36 37 39 39 40 40 41 42 43 45 46 46 45 43 41 41 42 43 40 35 30 28 32 34 33 32 31 32 33 34 36 36 35 35 34 34 33 33 33 30 28 28 29 27 26 27 27 25
6 7 4 7 8 5 3 0 4 6 9 10 12 15 16 19 21 23 22 21 21 22 25 27 27 26 27 27 28 29 32 33 33 37 38 38 38 38 39 41 42 44 45 45 43 39 36 35 34 35 36 37 38 39 39 40 40 41 42 43 44 43 42 41 40 40 41 42 42 40 35 32 33 34 34 32 31 30 29 34 35 35 36 34 35 37 36 35 33 31 32 33 32 29 28 27 26
7 7 6 8 9 5 1 2 5 7 8 11 14 16 19 21 21 21 21 21 22 24 25 24 23 24 25 27 28 28 30 31 32 37 40 40 40 41 43 44 45 45 47 47 43 39 36 34 34 33 34 35 36 38 38 39 38 39 39 39 41 41 40 39 39 39 39 40 40 41 41 38 36 35 35 33 32 31 30 32 33 33 33 30 30 35 37 36 34 34 34 34 33 31 28 27 26
7 7 7 8 7 3 1 2 4 6 10 14 16 16 19 21 20 20 21 21 22 22 20 19 21 24 26 28 27 27 28 29 32 36 39 41 42 43 46 47 48 50 51 47 41 37 34 33 33 32 32 32 34 35 36 37 38 37 37 37 37 38 39 38 38 38 38 38 39 40 40 41 42 41 40 37 35 34 32 33 33 33 33 28 24 27 32 35 35 34 35 34 34 32 31 29 27
6 6 5 6 5 3 2 3 5 8 12 14 14 16 19 20 20 20 21 21 20 19 18 20 23 26 27 28 27 26 27 30 33 35 37 39 41 42 44 46 49 53 50 40 36 34 33 32 31 31 30 30 31 33 35 36 36 36 36 36 36 35 36 37 37 37 37 37 37 39 39 40 42 44 45 43 41 39 36 33 33 34 35 33 27 23 25 31 32 32 33 34 34 34 33 32 29
5 5 5 6 6 5 5 5 6 9 13 12 12 17 21 20 20 20 20 20 19 19 21 23 25 26 27 27 26 27 28 31 33 35 37 39 41 42 45 49 52 51 42 33 31 31 31 30 30 30 29 29 29 31 33 34 35 35 35 34 35 35 35 36 37 37 37 37 36 37 38 39 40 42 45 45 46 45 43 39 36 35 35 35 33 28 25 26 27 27 30 31 33 34 33 33 32
4 5 6 7 8 6 6 6 7 11 13 13 14 18 21 21 21 20 20 21 21 22 23 24 25 26 27 27 27 28 29 31 34 35 37 40 42 45 50 53 50 43 35 30 29 30 30 30 29 30 30 30 29 30 32 33 34 33 33 33 33 34 35 36 36 37 37 38 37 36 36 37 39 40 42 44 46 47 48 46 43 41 38 37 37 34 31 29 27 26 27 28 29 33 36 36 34
5 6 7 9 9 7 7 5 8 12 13 16 16 17 20 21 20 20 21 21 22 23 23 24 25 26 28 28 29 29 30 32 34 36 38 41 45 50 53 52 44 37 33 30 29 29 30 30 30 30 30 31 31 31 32 32 33 33 33 33 34 34 34 35 36 37 37 38 38 37 36 35 36 38 40 42 44 46 48 49 48 47 45 43 42 40 38 37 35 32 30 27 25 27 33 39 39
6 7 8 10 9 8 7 5 9 14 15 17 17 17 20 19 19 19 20 22 22 22 22 23 23 25 28 29 29 30 31 32 35 37 39 43 48 53 52 46 39 34 31 30 30 29 30 30 31 31 31 32 32 33 33 34 34 34 35 35 35 34 34 34 35 36 37 38 38 37 37 36 36 37 38 40 42 44 46 48 49 49 49 48 48 48 46 44 43 41 39 35 31 25 26 34 39
7 8 9 9 9 7 6 6 11 15 16 18 18 18 19 19 18 19 20 22 22 22 22 23 24 26 27 29 29 30 32 33 35 38 41 45 51 53 48 41 35 31 29 29 30 31 32 33 33 33 33 33 34 34 35 36 36 36 36 36 36 36 36 36 35 36 37 38 38 37 37 37 37 37 38 38 39 41 43 46 48 49 49 49 49 50 51 50 48 47 45 44 45 39 28 29 35
8 8 9 9 10 8 7 9 12 15 16 18 18 18 19 17 16 17 20 21 21 22 23 24 26 27 28 29 30 31 33 35 37 39 43 48 52 51 43 36 33 30 29 30 32 33 34 35 37 37 37 36 36 36 37 37 37 38 38 38 39 38 38 38 37 37 37 38 39 38 38 38 38 38 38 38 38 39 40 42 45 48 49 49 48 47 47 49 49 48 48 49 50 49 39 31 32
8 8 9 11 11 10 9 11 13 15 16 18 18 19 19 16 14 17 20 22 22 23 25 27 27 28 29 30 31 32 34 36 39 41 45 50 51 47 38 32 31 30 30 31 32 33 34 36 38 40 40 40 40 40 40 40 40 40 40 40 40 41 40 40 40 39 39 39 40 40 40 39 39 39 39 39 39 38 39 40 42 45 48 49 50 49 47 46 47 48 49 50 51 52 48 40 34
8 10 12 13 13 12 11 12 14 15 16 18 19 20 19 15 15 17 20 22 23 25 27 28 28 28 30 30 32 33 35 37 40 43 48 52 50 44 37 33 31 33 34 34 33 32 32 34 35 37 38 38 39 39 40 41 42 42 42 42 42 42 42 42 42 42 41 41 41 42 42 42 41 40 40 39 39 39 39 40 40 42 44 46 48 50 50 48 47 48 49 50 50 51 51 48 44
9 11 13 14 13 12 12 12 15 17 18 19 20 20 17 14 15 18 21 23 24 26 27 28 28 29 30 31 32 34 36 39 42 45 50 54 51 45 40 38 37 38 39 38 36 35 34 34 33 33 32 32 33 34 34 35 36 39 41 43 45 45 46 45 45 45 44 43 42 42 43 44 43 42 41 41 40 41 41 41 40 41 42 43 44 46 49 50 49 49 50 51 51 51 52 51 51
10 11 13 14 13 12 12 13 16 18 18 19 20 20 16 13 16 19 21 23 24 26 27 27 28 29 30 31 32 35 37 40 43 47 52 54 52 48 46 45 44 44 42 40 39 39 38 37 37 35 33 32 32 32 32 32 32 33 34 37 40 43 46 48 48 49 48 47 46 44 44 44 44 43 43 42 42 42 42 42 42 42 42 43 43 44 45 47 49 50 50 51 52 52 52 52 52
10 11 11 11 12 12 11 15 17 17 17 19 21 21 16 12 16 19 21 23 24 25 26 27 28 29 30 31 33 35 38 41 45 49 52 54 52 51 49 49 49 48 45 42 40 40 40 40 39 39 38 37 36 35 34 33 32 32 32 32 33 36 39 43 46 48 50 50 50 48 47 45 45 44 44 44 43 43 43 44 44 44 44 44 44 45 44 44 46 47 48 49 50 51 50 50 52
11 9 10 10 12 12 12 15 16 15 17 20 23 22 16 13 16 20 22 23 24 25 26 27 28 30 31 32 33 35 38 41 45 49 52 53 52 51 50 50 52 52 49 46 42 40 41 41 41 40 40 39 39 38 37 35 34 34 33 33 32 32 33 35 38 41 44 48 50 51 50 49 47 45 45 45 44 44 44 45 45 46 46 46 46 46 46 45 45 46 47 47 48 50 49 47 49
9 8 9 9 9 11 14 14 14 15 17 19 23 22 16 13 16 20 22 23 24 26 26 27 29 30 32 33 34 35 37 41 46 50 52 53 52 51 50 51 54 55 54 51 45 41 41 42 42 42 41 41 41 40 39 37 37 36 36 36 36 35 33 33 34 34 36 40 44 48 50 51 50 48 47 46 45 45 45 45 46 47 47 47 48 48 48 47 46 47 48 49 48 48 50 47 45
9 8 9 11 10 9 14 14 12 15 18 20 22 22 17 15 16 20 22 23 25 26 27 28 29 31 32 33 35 36 38 42 46 50 52 52 51 50 50 52 55 57 56 54 49 44 43 44 44 43 42 41 41 41 40 39 39 39 39 39 40 40 38 36 34 33 34 36 38 41 45 49 50 50 49 49 47 46 45 45 46 47 48 48 49 50 50 49 48 48 48 50 50 49 50 50 48
10 9 9 13 13 11 12 14 14 14 18 20 20 21 19 17 17 20 22 23 25 27 28 29 30 31 32 33 35 36 39 43 46 50 52 52 50 50 50 53 55 57 57 54 50 46 44 44 44 44 42 41 40 39 39 39 39 40 40 41 42 42 42 42 39 36 34 34 35 35 38 43 47 49 50 50 50 48 47 46 46 46 48 49 50 50 51 51 51 50 49 50 51 51 50 51 52
12 13 13 15 16 13 12 14 17 15 17 19 17 21 22 18 19 21 22 23 25 27 28 29 30 30 32 33 35 37 40 43 46 49 52 51 50 49 50 53 56 57 56 52 47 44 43 43 42 42 41 40 39 38 37 37 37 39 39 40 40 40 41 42 42 40 36 34 33 32 33 37 41 45 48 50 50 50 49 48 46 46 47 48 49 50 51 51 52 52 52 52 53 53 52 52 53
16 18 19 18 18 17 15 15 15 15 18 20 17 20 21 19 19 21 21 23 25 27 28 29 30 30 32 33 35 38 40 43 45 48 50 50 49 49 51 54 55 55 53 48 44 43 43 42 40 38 38 38 38 38 37 36 36 36 37 38 38 38 39 40 40 41 39 35 33 33 33 35 37 41 45 48 49 49 49 49 47 46 46 47 48 49 51 52 51 52 52 52 53 54 54 54 54
18 20 21 21 20 19 19 17 15 17 20 20 17 17 18 18 18 19 20 23 25 27 28 29 29 30 32 33 35 37 40 42 44 47 49 49 48 49 52 54 54 54 51 47 44 43 42 40 38 37 37 37 37 38 38 37 36 35 35 36 36 36 37 37 38 39 39 36 33 33 33 34 35 36 39 42 44 46 47 48 48 47 46 46 47 48 50 51 52 53 53 52 53 54 55 55 55
18 20 21 23 23 21 20 18 14 19 23 20 17 17 18 18 17 18 20 22 25 26 28 29 29 30 31 33 35 37 40 42 44 46 48 48 48 50 52 54 54 54 51 46 44 43 41 38 37 37 37 36 36 36 37 37 35 33 33 33 34 33 33 35 36 36 36 36 34 33 33 33 34 33 33 34 37 39 42 44 46 46 47 47 48 49 49 50 51 53 54 54 53 53 54 55 55
19 21 22 23 25 24 20 13 11 19 24 21 19 20 20 19 16 16 19 22 24 26 28 29 29 30 31 33 35 37 39 42 43 46 47 48 49 50 53 54 55 55 50 44 42 42 40 37 37 37 37 36 35 35 35 35 35 33 32 31 32 31 31 31 33 34 34 35 35 35 35 33 33 32 32 31 32 33 35 38 41 43 45 46 47 49 50 50 51 52 54 55 56 55 55 55 55
21 22 23 23 25 27 20 10 12 18 22 23 21 23 22 19 15 15 19 21 23 25 27 28 29 29 31 33 35 37 39 41 43 45 46 48 49 51 53 55 56 53 47 42 41 41 40 38 36 36 36 35 34 34 34 34 34 33 32 31 31 31 30 29 30 32 34 35 36 37 37 34 33 32 31 30 30 30 31 32 35 37 40 42 45 46 48 50 52 53 54 55 56 57 57 56 56
21 22 25 26 26 28 19 11 15 17 22 24 22 26 26 17 14 17 19 20 22 25 27 27 28 29 31 33 35 37 39 41 43 44 46 48 49 52 54 56 55 51 44 40 39 39 39 37 36 35 34 34 34 34 34 33 33 32 32 31 30 30 29 27 27 31 34 36 37 38 37 35 33 32 31 30 29 29 29 30 31 32 35 38 41 43 45 48 51 53 55 56 56 57 58 58 57
20 23 27 29 29 27 20 18 17 14 20 23 23 31 25 12 15 19 18 20 22 24 27 28 28 30 31 33 35 37 39 41 42 44 46 48 50 52 55 56 54 48 42 39 38 38 37 36 35 34 33 34 34 34 33 33 32 31 31 29 29 28 28 26 25 28 32 35 36 37 36 35 33 32 31 30 29 29 29 29 30 30 32 34 37 40 43 45 48 51 53 56 57 58 58 59 59
19 24 27 29 30 27 23 23 20 17 18 18 25 32 18 11 22 21 17 19 22 24 27 28 29 30 32 34 35 37 39 41 43 45 46 48 50 53 55 55 52 46 40 38 37 37 36 34 33 33 33 34 33 32 32 32 31 30 29 28 26 25 25 24 23 24 27 31 33 34 35 34 33 33 32 31 30 30 30 30 31 31 32 33 34 37 40 42 45 48 51 54 56 58 59 59 60
21 23 26 29 31 27 22 20 21 21 17 16 24 21 11 20 27 19 17 19 20 24 27 28 30 31 33 34 35 37 39 41 43 45 47 48 50 53 55 54 51 45 40 38 36 35 34 32 32 31 33 33 31 31 30 30 29 28 27 26 24 23 21 21 21 21 22 25 27 29 30 32 32 32 32 32 32 32 32 32 32 33 33 33 34 35 37 40 42 44 47 51 54 57 58 60 60
22 23 26 28 29 25 20 17 18 19 16 19 20 10 13 30 30 18 18 19 20 24 27 29 31 32 34 34 35 36 38 41 43 45 47 48 50 53 54 53 50 45 40 38 36 35 33 31 30 30 31 32 30 30 29 28 28 27 26 24 23 22 20 18 17 18 18 19 20 22 24 26 27 28 29 30 31 32 33 33 33 33 33 33 34 34 35 37 39 42 44 47 50 53 55 58 60
22 25 27 28 27 19 14 14 15 17 19 19 15 9 14 27 29 21 18 19 21 25 28 31 31 33 34 34 35 36 38 41 43 45 47 48 50 52 53 52 49 45 41 38 36 34 33 31 29 29 30 30 29 29 28 27 27 26 24 23 21 20 19 17 16 15 15 15 16 17 18 20 21 23 25 27 29 30 31 32 32 32 32 32 33 33 34 35 37 39 41 44 47 49 51 54 57
23 25 27 30 25 15 11 12 14 16 18 14 11 10 10 20 26 19 16 23 25 26 30 32 33 34 35 35 36 37 39 41 43 46 47 49 51 51 52 51 48 44 41 38 35 34 32 30 29 29 29 29 28 27 27 26 26 25 24 22 20 19 17 16 15 13 12 12 12 13 14 15 17 19 21 22 24 25 27 27 28 29 30 31 32 33 34 35 36 38 39 41 44 46 48 50 52
23 24 29 29 20 13 9 9 15 14 12 9 10 9 6 16 24 17 18 29 28 29 33 33 34 35 35 36 37 39 41 42 44 46 48 49 51 51 51 50 47 44 41 38 35 33 32 31 29 29 29 27 26 26 25 24 24 23 22 21 19 17 16 15 14 13 11 11 10 10 11 11 12 14 16 17 18 19 20 22 23 24 26 28 30 32 33 35 36 38 40 41 42 44 46 47 48
23 24 31 26 14 12 6 7 14 9 6 7 8 9 6 10 19 20 26 31 29 31 34 34 36 36 37 38 38 40 42 43 45 47 48 49 50 51 51 49 46 44 40 37 34 32 31 30 28 28 28 27 25 24 24 23 23 22 21 20 18 16 15 13 12 12 11 10 9 9 9 9 9 10 11 12 13 14 14 16 17 19 21 24 26 29 31 34 36 38 40 41 43 44 45 46 47
21 23 30 25 12 10 5 5 8 2 4 7 7 13 10 9 17 26 29 30 30 33 34 35 37 38 40 40 40 42 42 44 46 47 48 49 50 51 51 49 47 44 40 36 34 31 30 29 28 27 27 26 24 23 23 23 22 21 19 18 17 16 14 13 12 11 10 9 8 8 8 8 8 8 9 9 10 11 11 13 14 16 18 20 22 25 28 31 34 37 39 41 43 45 46 47 47
19 20 28 22 8 7 3 3 3 3 8 8 10 19 15 15 23 28 26 28 30 33 35 36 38 40 42 42 41 43 44 45 47 47 48 49 49 51 51 49 47 45 41 37 34 31 29 28 27 27 26 25 23 22 22 22 21 19 18 17 16 15 14 12 11 10 9 9 8 8 9 8 8 8 9 9 10 11 12 13 14 16 17 18 20 22 24 27 31 34 38 40 42 44 46 47 49
17 19 26 17 4 5 4 4 3 5 11 16 21 21 15 19 28 26 25 29 31 34 36 37 40 42 43 44 43 44 45 46 46 47 48 49 49 50 50 49 47 46 42 37 35 32 29 28 27 26 26 25 23 21 22 22 20 19 17 17 16 15 14 13 12 11 10 9 9 9 9 9 9 10 10 10 11 12 14 15 16 17 19 19 21 22 23 24 26 30 34 38 41 43 45 47 48
15 18 20 13 5 2 2 4 3 6 18 27 24 12 12 22 26 24 28 32 34 36 38 39 42 44 45 45 45 45 45 46 46 47 48 49 49 49 50 49 47 46 43 38 36 33 30 28 26 26 25 24 23 21 21 21 20 18 17 16 16 15 15 14 13 12 11 10 10 10 10 11 11 11 11 11 13 14 15 17 18 20 21 22 23 24 25 25 26 27 29 33 37 40 43 46 47
14 18 17 14 11 3 5 8 9 11 15 19 15 12 23 30 24 24 30 34 37 39 41 43 44 45 46 45 45 45 46 46 46 47 47 49 49 49 50 49 48 47 44 39 36 34 32 28 27 26 24 24 23 21 20 21 20 18 17 16 16 16 15 15 15 14 14 13 12 11 11 12 11 11 12 13 14 15 16 18 19 21 23 24 25 26 27 27 27 27 26 28 32 36 40 43 45
14 16 15 16 14 7 6 8 10 8 5 8 12 20 36 34 21 26 32 35 40 42 43 46 45 46 46 45 46 46 46 46 46 46 47 49 49 49 49 48 48 47 44 41 37 35 33 29 27 26 24 24 23 21 20 20 20 19 17 16 16 16 17 17 17 16 16 15 14 13 13 12 12 12 13 14 15 16 17 19 20 21 23 25 27 27 27 28 29 28 26 26 27 31 35 39 42
13 13 14 16 12 7 8 6 4 3 1 8 13 21 34 29 18 28 35 35 42 44 45 46 45 46 46 45 46 46 46 46 45 45 46 48 49 49 49 48 47 47 45 42 38 35 33 31 28 26 25 24 23 22 21 20 20 19 19 17 16 17 17 18 18 18 17 17 16 15 14 14 14 13 14 15 16 17 18 19 20 22 23 25 27 28 28 28 29 29 27 25 24 26 30 34 37
13 13 13 13 8 5 7 6 4 3 1 6 13 20 28 25 21 30 36 37 43 45 45 45 45 45 46 46 46 45 46 46 45 45 46 47 49 49 49 48 47 47 46 43 40 36 34 32 30 27 26 25 24 23 22 21 21 20 20 19 18 18 18 19 19 19 19 18 17 17 16 16 15 15 15 16 17 18 19 19 21 22 23 25 27 28 28 27 27 28 27 25 22 22 24 28 31
14 14 13 12 8 7 9 6 5 3 1 4 10 15 22 25 25 31 37 41 44 44 45 45 45 46 46 47 47 46 46 46 46 46 46 47 48 48 49 48 47 46 46 44 41 38 36 33 30 28 26 26 25 24 23 22 22 21 21 20 20 19 19 19 20 20 20 19 19 18 18 17 17 17 17 17 18 19 19 20 21 22 23 25 26 28 28 27 26 26 26 24 21 19 19 21 25
14 15 13 12 10 10 12 11 11 7 4 1 2 9 25 30 26 31 41 43 44 45 45 46 46 47 47 47 47 47 46 46 46 46 47 47 48 48 48 47 47 46 45 44 42 40 38 35 32 30 28 26 26 25 24 23 23 22 22 22 21 21 21 20 21 21 21 20 20 20 19 19 19 18 18 19 19 20 20 21 21 23 24 25 26 27 28 28 27 26 25 24 21 17 14 15 18
14 16 15 14 13 12 9 7 10 9 9 6 2 8 30 35 30 37 45 42 43 45 44 46 47 47 48 48 47 47 47 47 46 47 47 48 48 47 47 47 47 46 45 44 43 41 39 37 34 32 29 28 27 26 26 25 24 24 23 23 23 23 23 22 22 22 22 22 21 21 21 21 20 20 20 20 21 21 21 22 23 24 25 25 26 27 27 27 27 25 24 24 22 17 13 11 12
Wind_Direction
107 105 101 97 98 104 107 108 97 92 95 86 76 72 64 52 33 340 346 348 346 351 353 350 343 343 341 337 338 339 340 335 330 324 316 311 313 313 311 310 309 308 305 303 299 292 288 287 286 286 286 282 278 272 266 262 257 255 260 270 261 253 261 246 239 240 243 245 245 245 245 247 249 251 253 251 252 253 253 251 250 250 250 251 251 252 252 252 253 254 255 255 255 251 245 244 243
100 97 95 95 102 106 105 102 95 89 84 77 67 63 58 31 357 338 348 351 351 354 349 344 340 339 337 337 340 339 335 328 324 321 316 314 312 310 309 307 307 307 307 308 305 298 291 287 286 286 284 281 277 272 268 264 261 260 258 262 253 239 243 228 226 238 241 244 244 246 246 247 248 248 249 251 250 251 253 254 252 251 250 251 252 253 253 254 253 253 254 255 256 254 250 246 244
97 96 95 96 104 108 104 99 98 93 78 74 66 61 53 19 3 358 357 352 348 346 342 337 335 334 334 337 336 329 326 324 324 322 319 316 312 310 308 305 304 303 304 305 303 299 294 288 284 284 282 278 275 270 267 264 264 264 259 258 251 237 232 215 193 207 221 234 240 242 241 242 244 245 247 249 249 249 252 254 255 254 252 251 251 251 251 252 252 252 253 254 254 255 253 248 245
99 102 102 103 110 111 109 102 99 96 83 81 72 61 48 27 13 4 350 343 339 334 330 329 333 334 335 335 329 325 324 324 323 321 318 314 312 311 309 307 305 302 300 299 299 297 295 290 285 282 281 278 274 268 264 263 263 262 259 255 249 235 221 209 199 201 214 230 236 238 237 239 240 241 244 248 250 251 253 255 256 256 255 253 251 250 248 248 248 248 249 250 251 252 252 248 244
106 111 112 114 112 106 110 105 99 90 83 90 84 65 45 37 12 350 332 323 320 319 323 328 334 335 334 330 325 324 321 322 322 319 316 314 314 313 311 309 306 304 300 297 295 294 293 290 287 282 278 277 275 269 261 260 261 258 254 246 239 229 216 216 228 237 239 239 241 242 242 244 244 243 247 251 253 253 255 257 257 255 255 255 254 253 251 248 246 245 246 247 248 248 249 249 244
111 113 115 114 106 106 113 101 94 89 83 86 84 65 35 31 351 336 323 318 318 319 325 330 334 335 332 326 323 323 322 323 322 319 317 315 314 313 312 309 306 303 300 298 295 292 291 289 287 283 278 275 274 271 264 258 256 252 243 230 223 216 207 207 224 237 240 242 245 247 246 247 249 254 257 257 254 252 254 255 254 255 255 254 254 254 254 251 247 243 244 245 247 246 246 248 246
111 112 113 110 106 113 114 97 93 90 85 80 76 63 12 350 329 323 315 318 320 322 328 332 334 335 329 324 323 324 325 325 322 320 317 315 314 313 312 309 306 302 299 297 296 293 291 288 286 283 279 275 272 270 267 259 251 246 236 227 224 221 216 218 225 232 238 243 247 249 252 254 256 259 260 256 253 252 254 254 253 254 254 251 248 249 250 250 247 244 243 244 246 247 245 244 244
116 117 116 113 111 113 107 99 94 88 88 88 67 16 332 326 320 318 318 322 324 327 332 333 335 335 329 326 326 327 329 326 323 320 316 316 316 315 314 311 308 304 300 296 295 294 292 289 286 282 278 274 270 268 268 264 255 249 244 242 243 243 243 245 248 246 245 248 249 251 254 256 254 255 258 257 256 255 253 253 253 253 251 247 244 243 243 245 245 245 243 243 244 246 246 242 239
118 122 126 122 119 115 105 100 94 88 93 88 12 322 318 317 319 326 329 328 328 332 334 336 339 337 332 333 333 332 332 328 323 319 318 320 319 318 315 312 310 308 304 299 296 295 294 292 289 284 278 273 270 267 266 267 264 259 256 254 254 253 254 256 252 243 243 247 250 252 251 252 252 252 256 257 256 253 251 251 251 251 249 248 246 242 242 243 243 243 242 239 239 241 243 241 239
116 123 130 127 127 117 106 104 95 81 50 9 337 321 317 317 327 335 336 333 334 335 339 343 341 337 338 341 339 335 332 326 322 321 323 323 319 316 313 310 309 307 305 302 298 295 294 294 293 289 285 278 271 267 264 264 265 265 265 266 264 261 258 259 255 242 238 238 241 245 244 246 249 252 254 253 250 246 246 248 249 249 248 247 248 247 248 246 240 238 238 236 235 236 237 239 239
119 121 122 120 124 109 98 101 94 73 18 342 315 312 318 328 336 337 337 339 343 343 343 344 342 343 347 345 339 335 329 324 323 325 325 322 318 314 311 309 306 305 303 302 300 297 295 293 293 293 290 286 279 272 268 265 264 265 267 269 269 269 265 260 257 250 242 234 231 233 236 241 247 250 251 249 245 244 243 241 241 243 244 245 247 249 249 244 237 233 233 233 233 232 232 232 232
117 118 121 114 114 100 97 102 88 63 321 301 301 315 327 334 335 336 343 349 350 348 344 343 348 351 349 343 338 334 327 324 327 327 324 320 318 314 312 310 308 306 304 304 303 300 297 294 292 292 292 291 288 281 275 270 267 266 266 269 270 271 271 267 261 257 253 246 234 227 226 233 241 243 243 245 241 238 238 236 235 234 236 240 243 246 245 240 234 228 228 228 228 229 228 228 229
102 105 121 113 114 108 106 118 62 324 289 294 311 329 332 334 338 342 351 352 350 349 345 347 352 351 345 340 338 334 326 327 329 327 325 323 320 317 315 313 311 309 308 306 304 302 299 297 294 291 291 291 290 288 283 278 273 270 268 270 271 272 272 271 267 262 259 256 251 246 235 226 230 234 235 236 231 223 222 227 232 230 231 235 237 240 241 238 234 229 229 228 226 227 227 227 230
86 89 107 109 125 136 112 144 305 302 303 318 332 337 336 342 345 348 351 349 349 351 350 353 352 346 341 339 338 333 327 329 330 331 331 329 327 325 322 319 317 314 312 309 305 303 301 299 297 293 291 290 290 289 288 284 280 276 272 271 273 275 274 273 271 269 265 261 257 256 252 240 232 232 232 230 227 219 213 217 222 224 225 228 231 234 235 233 231 231 234 236 233 230 228 227 229
74 77 91 108 134 164 171 301 310 315 331 342 343 344 342 346 348 348 350 351 353 355 355 355 348 342 343 342 339 331 325 327 328 329 331 331 331 329 328 326 324 322 319 315 307 302 301 300 298 296 292 290 289 289 289 288 285 281 277 275 274 276 278 277 275 273 271 269 264 260 258 253 246 241 238 232 229 227 223 220 218 218 216 215 218 224 227 227 228 231 235 238 235 233 232 230 228
74 75 88 111 130 143 201 310 340 348 356 351 346 346 342 344 349 348 349 353 357 358 357 350 344 344 346 343 337 328 323 323 324 325 328 329 330 329 328 326 325 323 321 317 308 302 299 299 298 297 294 291 290 290 290 289 287 285 282 280 278 277 278 280 279 278 276 273 270 267 262 257 253 250 247 243 239 237 233 227 222 221 216 213 211 211 215 219 223 226 230 235 235 235 236 234 228
76 74 81 98 96 80 36 4 7 5 4 354 344 341 342 346 349 348 350 356 359 358 354 348 346 346 344 342 337 332 326 325 326 328 329 329 327 326 324 322 320 319 318 312 305 302 298 297 297 297 295 293 291 290 290 288 287 287 286 285 284 284 282 281 281 280 279 276 273 270 267 262 257 254 252 250 248 247 244 237 230 227 223 223 226 220 216 216 217 217 218 226 233 236 236 234 228
64 63 60 58 58 51 21 10 8 6 2 357 348 343 344 349 351 351 353 359 359 355 352 350 348 346 344 345 343 339 334 332 332 332 331 328 325 323 320 318 318 317 314 306 302 302 299 298 298 297 297 295 292 290 289 287 286 285 286 287 287 287 287 286 284 282 280 278 275 273 270 267 263 258 256 254 252 252 252 249 243 238 233 232 234 232 228 225 224 222 213 212 222 231 234 232 227
41 44 41 34 37 34 19 10 2 0 356 358 359 349 347 351 354 355 357 359 357 353 352 350 347 346 348 349 347 343 339 336 335 333 330 327 325 322 321 320 320 318 312 304 301 301 301 300 299 299 298 297 294 291 290 288 286 285 284 285 286 286 286 285 285 284 282 279 277 275 273 270 268 263 260 257 255 254 255 256 254 251 247 244 242 240 238 237 237 235 225 211 211 220 228 233 230
33 33 30 26 26 24 21 11 356 353 352 359 1 352 350 354 356 358 358 356 354 353 351 348 345 346 348 349 347 344 341 338 335 333 330 327 326 325 325 325 323 319 312 307 304 303 302 301 300 299 298 296 294 291 290 289 287 286 284 282 282 281 281 281 281 281 281 279 277 275 274 272 269 266 263 261 258 256 256 257 258 257 255 252 250 247 245 243 242 241 237 227 216 211 215 226 229
32 24 25 26 24 22 15 360 352 351 353 358 357 352 353 356 357 358 356 353 352 352 349 347 345 344 345 345 345 343 341 338 335 332 330 329 327 329 330 327 323 318 313 311 309 306 303 301 299 297 295 293 291 289 287 286 286 285 283 282 280 279 277 276 276 277 277 277 276 274 273 272 270 267 264 262 261 259 257 256 257 258 257 256 254 252 249 248 246 243 241 238 236 228 211 213 220
22 14 21 30 30 22 0 353 352 349 351 352 352 352 354 354 354 355 354 352 352 351 349 350 349 346 345 343 342 341 339 337 334 332 330 330 330 333 332 327 322 317 312 309 306 304 302 302 300 297 294 292 291 289 287 286 284 283 282 280 279 278 277 274 272 271 272 273 273 272 271 270 269 268 265 263 261 260 258 257 257 257 257 257 255 253 251 250 247 245 243 240 241 242 232 216 214
10 8 16 28 30 16 351 352 351 346 345 344 344 349 353 352 350 350 351 351 352 352 353 355 353 349 345 342 340 338 337 335 333 332 331 331 333 335 334 329 325 319 312 308 305 305 305 303 301 298 295 292 290 288 287 286 285 283 281 280 279 278 277 275 272 269 268 269 269 268 267 267 267 267 265 264 262 261 259 257 256 256 256 257 257 255 252 250 248 245 243 242 243 244 242 230 215
1 8 13 18 19 6 349 346 343 341 337 333 338 346 349 347 344 347 350 352 354 356 357 358 354 349 345 341 339 337 335 334 332 331 331 332 335 335 335 336 334 328 321 315 313 312 308 304 300 299 296 294 292 290 288 286 284 283 281 280 279 278 278 277 275 272 269 268 267 266 265 264 263 264 264 263 262 261 259 258 256 255 254 254 255 255 253 252 249 247 245 242 243 245 244 237 226
354 7 11 9 6 356 347 341 333 330 329 329 336 344 343 338 341 346 351 354 356 358 359 357 351 347 344 340 339 338 335 334 332 331 331 334 337 337 338 342 341 337 333 328 323 318 311 307 304 301 299 298 296 294 292 289 286 282 280 278 278 278 278 277 277 275 273 270 268 267 266 263 261 260 260 260 260 259 258 258 257 256 254 254 253 253 253 252 251 249 247 244 243 244 245 241 235
355 5 9 4 356 348 342 335 326 324 327 328 329 336 336 333 344 349 351 356 358 359 357 353 349 345 343 340 339 338 336 335 334 333 333 335 338 339 344 346 345 342 339 334 328 324 320 316 314 309 306 305 301 297 295 292 289 285 281 278 276 275 275 275 276 276 275 273 270 268 268 265 262 259 258 257 257 256 256 255 255 255 255 254 254 253 253 252 251 250 248 247 245 244 244 242 239
5 8 6 359 348 342 333 324 324 323 322 321 321 329 334 333 347 351 352 356 357 357 354 349 345 342 341 339 338 338 337 336 335 334 335 336 338 342 347 347 346 344 339 334 330 326 323 321 319 316 314 312 308 305 301 297 293 289 285 280 277 274 273 272 272 273 273 273 272 270 268 267 264 262 259 256 254 253 253 252 252 253 253 253 253 253 253 252 250 250 249 248 247 247 246 245 242
17 7 360 355 343 337 323 316 319 316 313 314 318 328 332 331 345 352 353 356 356 354 351 345 342 340 339 338 338 338 337 336 335 335 335 336 339 344 347 346 344 342 338 334 330 326 323 320 318 317 316 315 312 310 306 302 298 294 289 284 279 276 274 272 270 269 269 269 269 268 268 267 265 264 262 259 255 252 250 250 249 250 250 250 250 250 251 251 249 249 249 248 248 248 248 247 245
18 359 353 353 342 330 309 308 309 304 309 314 320 328 329 327 341 350 352 354 354 352 348 343 340 339 338 337 337 336 335 335 334 334 335 337 342 345 345 343 340 338 337 334 330 326 321 318 317 317 316 315 314 311 308 305 302 299 296 292 287 281 277 275 273 271 269 267 265 265 264 264 264 263 262 261 259 255 251 249 248 248 247 247 248 247 248 248 247 247 247 247 246 245 246 246 244
8 348 346 345 340 322 303 308 309 304 311 318 322 324 325 328 336 344 347 351 352 350 346 341 339 338 338 337 335 334 333 333 333 333 335 339 343 344 343 341 338 336 335 332 329 325 321 319 318 318 317 315 313 311 308 306 304 302 301 299 296 291 286 280 276 273 273 270 266 263 261 261 260 260 260 260 259 258 255 251 248 247 245 245 245 246 246 245 245 245 244 245 245 244 242 242 242
360 345 329 327 337 327 312 315 313 308 312 320 319 315 320 328 329 335 340 346 350 348 345 341 339 338 337 336 334 333 331 331 332 333 337 341 343 343 341 338 336 334 332 329 326 324 322 321 319 317 315 313 311 309 307 306 305 303 302 301 299 298 294 289 282 277 275 275 272 266 261 258 257 256 257 257 258 258 257 255 251 248 246 244 244 244 245 245 244 243 243 243 244 244 242 241 242
353 346 333 330 338 339 330 320 310 308 310 317 315 307 314 322 323 330 334 341 347 345 344 340 338 337 335 334 333 331 330 331 332 333 338 342 341 340 339 336 334 332 329 326 323 322 321 319 317 315 313 311 308 306 305 304 303 301 299 297 296 296 295 293 288 282 278 276 275 272 266 259 255 254 253 254 255 255 256 256 254 251 248 246 245 244 244 244 244 244 243 243 243 244 244 243 243
353 351 350 346 341 340 341 324 308 306 309 313 310 302 308 318 321 327 331 338 344 342 341 339 337 335 333 333 332 330 330 330 332 334 338 340 339 339 337 334 332 329 326 324 321 320 319 318 316 313 310 308 306 305 303 301 299 297 294 292 291 290 290 289 288 284 279 274 272 271 269 263 256 253 251 251 252 252 253 254 254 253 251 249 247 246 245 244 244 244 244 244 243 243 243 244 244
359 356 353 351 348 342 340 329 308 303 312 315 310 302 306 314 319 323 329 335 340 341 339 337 335 334 333 332 331 329 329 331 332 334 337 338 337 337 335 332 329 327 325 322 319 319 319 318 315 311 308 307 307 306 305 303 301 298 295 292 290 288 286 283 281 280 278 273 268 266 267 266 262 256 252 250 250 250 250 250 251 252 252 250 249 248 247 246 244 243 243 244 244 243 243 243 244
360 358 352 348 349 346 337 327 308 305 316 319 313 306 308 311 316 322 329 335 339 340 336 335 335 334 332 331 329 328 328 331 333 334 335 335 336 335 333 329 327 326 324 322 320 320 321 319 315 312 310 310 309 308 308 307 304 301 297 294 291 288 284 278 273 272 273 271 267 265 265 268 268 265 259 254 252 250 248 248 248 248 249 248 248 248 248 247 246 245 244 243 244 244 243 243 243
359 355 353 346 342 344 337 320 307 312 319 324 317 309 313 314 317 323 329 335 338 338 336 336 336 333 331 329 327 326 327 331 333 333 334 335 335 334 330 327 327 326 325 323 322 322 321 319 316 314 313 312 312 311 311 310 307 304 300 295 292 290 285 277 268 264 265 265 265 264 264 266 269 270 269 264 259 254 251 248 246 246 246 245 245 246 246 246 246 246 245 244 244 244 244 243 243
360 354 354 348 337 338 338 316 303 316 318 326 321 308 316 320 319 326 329 334 337 337 337 337 336 332 329 327 326 326 328 331 332 332 334 335 335 333 329 328 328 326 325 324 324 322 321 320 318 316 315 314 314 314 314 313 311 311 308 303 299 297 291 280 267 258 256 257 259 260 261 263 267 271 274 273 269 263 257 253 249 247 246 244 244 244 244 245 244 244 245 245 244 244 244 244 244
360 357 352 348 339 337 341 318 307 316 313 320 317 305 318 323 321 332 330 333 339 337 338 338 335 331 329 328 326 326 329 331 331 332 334 336 334 331 329 330 328 326 326 326 325 323 321 319 318 316 315 315 316 316 316 315 315 315 314 310 306 303 299 286 269 256 250 250 252 255 258 260 264 269 273 277 276 273 268 262 257 253 249 247 244 243 242 243 243 242 243 243 244 244 244 244 244
358 1 353 347 343 338 341 327 314 316 311 315 312 309 322 326 326 338 333 333 340 337 338 339 335 331 330 329 327 328 330 331 331 333 335 335 332 331 331 330 328 328 327 326 325 322 319 318 317 316 316 317 318 319 319 318 318 318 318 315 311 308 304 293 275 259 251 248 249 252 256 258 261 265 270 274 277 277 275 271 267 262 257 252 248 245 242 241 241 241 241 241 241 242 243 243 244
357 2 356 349 345 337 331 324 320 320 314 310 309 315 324 332 338 342 333 332 339 339 340 339 336 334 332 329 330 330 330 331 332 334 336 335 332 332 332 329 328 330 328 326 324 321 318 317 317 317 318 320 321 322 322 321 322 322 320 318 314 311 308 300 282 264 255 252 252 253 257 260 262 265 268 272 274 276 277 275 272 268 263 259 254 249 245 241 240 240 240 240 240 240 241 242 242
358 359 355 349 342 332 322 318 320 328 321 308 315 322 326 336 340 342 332 330 338 341 341 342 339 336 333 331 332 331 330 332 334 336 336 334 333 332 330 328 330 331 327 324 322 320 318 317 318 319 320 321 323 324 323 324 325 324 323 321 317 312 310 305 292 273 260 257 257 257 259 261 262 265 267 271 274 275 275 274 273 271 267 263 259 255 250 246 242 240 239 239 240 240 239 239 240
358 356 351 347 339 329 320 314 317 326 327 320 327 331 322 325 336 339 327 330 338 340 342 345 343 338 335 334 333 332 332 334 337 337 335 334 333 332 329 330 332 331 326 322 320 319 318 318 319 320 320 322 324 325 325 326 328 327 325 323 320 316 313 308 299 287 274 267 264 263 263 265 265 266 268 270 272 272 271 271 270 269 268 265 262 259 255 252 248 245 242 240 239 239 239 238 238
356 352 347 345 338 327 318 315 317 320 323 325 325 316 296 317 334 340 323 329 337 339 344 345 345 342 338 337 335 334 335 337 338 337 335 334 333 331 329 332 334 330 325 322 321 320 319 319 320 320 321 323 324 325 326 328 331 330 329 327 325 323 320 315 306 297 289 281 275 271 269 269 268 266 266 267 267 268 269 270 270 270 269 267 265 263 259 256 253 250 247 245 242 240 239 239 237
349 347 347 343 338 329 314 314 316 309 314 322 314 292 284 304 328 335 320 329 337 338 345 345 344 344 341 339 337 337 339 339 338 336 335 335 332 330 331 335 335 329 324 322 321 321 319 319 320 320 322 324 325 326 327 330 333 333 333 332 331 329 326 322 316 307 298 291 284 278 273 270 268 266 265 265 266 268 271 272 273 273 273 271 270 267 264 261 257 254 252 249 247 243 241 239 238
344 346 349 343 338 332 310 310 319 306 308 320 307 305 289 291 316 331 325 332 338 339 342 343 343 344 342 341 340 340 341 340 338 336 336 334 331 330 334 336 334 328 324 323 322 321 319 319 320 320 323 325 326 326 328 330 333 334 335 336 336 335 332 327 323 319 310 303 296 288 282 277 273 272 271 271 272 273 274 276 277 277 277 276 273 271 268 265 261 258 255 252 250 248 245 242 240
341 345 348 344 338 331 308 304 324 308 291 307 299 307 317 300 315 338 337 334 337 337 340 342 342 344 343 342 342 342 341 340 338 337 336 334 331 332 335 336 333 328 325 323 322 321 319 319 319 319 322 325 326 326 328 331 332 333 335 337 339 338 337 333 330 329 326 322 317 310 304 297 290 286 284 283 283 283 283 284 284 283 282 280 278 275 272 268 264 261 258 255 252 250 248 246 243
341 344 347 350 347 334 298 281 327 315 269 307 290 295 327 309 320 338 337 335 336 335 338 340 341 343 343 343 343 342 341 340 339 338 335 333 332 333 335 336 333 328 326 324 321 320 318 317 317 317 320 324 325 326 327 330 331 332 334 336 339 340 340 339 338 338 339 339 337 332 327 321 315 309 303 301 299 298 299 298 297 295 292 289 285 282 278 273 269 264 260 257 253 251 249 248 245
343 342 347 355 356 337 283 267 336 332 274 314 293 305 306 268 310 334 336 335 336 336 338 339 340 343 343 343 343 342 341 340 338 337 334 333 333 333 334 335 333 329 328 325 322 320 317 316 315 315 318 322 325 326 325 327 329 331 332 334 336 339 340 341 341 341 340 341 341 338 336 332 328 324 318 315 313 313 314 314 314 313 310 306 300 294 288 282 276 270 265 260 256 253 250 248 246
341 341 353 2 359 346 328 276 326 250 279 306 305 313 300 274 309 334 340 339 339 338 339 339 341 342 342 343 343 342 341 340 338 336 334 334 334 332 333 335 333 331 330 326 323 320 316 315 313 312 316 320 323 324 321 323 327 329 330 332 333 335 337 338 340 340 338 338 336 331 329 329 327 324 322 320 321 322 324 326 327 326 324 321 318 311 303 293 284 276 270 265 260 256 252 249 247
342 348 1 13 20 1 347 299 309 283 294 302 303 306 296 302 324 339 345 345 344 342 341 342 342 342 341 342 343 342 341 339 336 335 333 333 333 332 332 334 333 332 331 328 324 320 317 314 312 310 313 317 321 321 318 319 323 326 327 328 329 330 331 332 333 334 334 333 330 326 324 326 327 325 324 324 326 328 330 331 332 331 331 329 328 325 319 310 297 285 276 270 264 259 255 251 248
344 349 360 11 17 17 274 291 295 291 303 306 305 294 291 313 330 344 348 349 348 345 344 344 343 341 341 342 342 341 340 337 335 334 332 332 332 332 332 333 333 332 332 329 325 322 318 314 311 309 310 314 317 317 314 314 317 321 322 324 324 324 325 325 325 325 327 326 323 322 321 323 327 327 326 326 328 331 332 334 334 334 334 333 332 330 328 324 314 300 286 276 269 263 258 254 250
340 342 351 356 351 306 253 279 276 281 302 308 301 293 310 319 332 345 349 350 348 347 345 343 342 341 341 342 342 340 338 336 334 332 330 330 332 332 332 333 332 332 333 331 326 322 320 315 311 309 308 310 313 313 310 308 312 315 316 319 319 319 319 319 319 318 318 319 317 317 317 318 321 323 323 323 325 328 331 334 336 336 337 336 333 331 330 329 325 314 300 284 273 266 260 256 252
335 336 342 343 339 325 301 289 276 281 293 295 289 302 319 329 341 347 348 348 347 346 344 342 341 340 340 341 341 339 337 335 332 331 330 330 331 331 331 332 332 332 333 332 328 323 320 316 311 308 306 306 307 308 306 304 305 308 309 312 312 314 315 315 315 313 312 313 312 312 312 310 313 316 317 318 320 323 326 330 333 335 337 337 335 332 329 329 329 324 312 295 279 269 261 257 253
331 327 334 337 335 335 333 316 299 332 275 278 285 298 313 320 332 343 345 345 346 345 342 341 339 338 339 340 340 338 335 333 331 330 330 330 330 330 330 330 331 332 333 333 330 325 321 317 313 309 305 303 303 304 304 300 300 301 302 304 305 308 311 311 311 310 309 308 307 308 308 305 306 309 310 313 315 317 320 324 328 331 334 335 335 333 330 328 329 328 321 307 289 274 263 257 253
330 324 327 334 328 306 324 326 311 331 290 285 297 301 309 313 322 338 344 343 343 343 340 339 337 337 338 338 338 337 334 333 332 331 330 330 329 329 329 329 330 332 332 333 332 328 323 320 315 310 305 302 301 300 300 298 295 295 295 296 298 302 305 307 308 308 307 306 304 304 303 301 301 302 304 307 309 311 314 318 322 326 329 331 333 332 331 328 327 329 327 317 301 282 268 259 254
327 324 322 325 316 289 302 296 252 262 243 291 311 309 316 329 333 337 343 343 341 341 338 337 337 336 337 337 336 335 333 333 333 332 331 330 329 328 327 328 329 331 332 332 332 330 326 322 317 312 306 302 300 297 297 295 292 290 289 290 291 295 299 302 304 305 305 304 303 301 299 298 297 298 300 301 302 303 307 311 316 320 324 326 328 330 330 329 327 328 330 325 312 295 279 266 256
320 322 319 315 309 298 301 288 258 246 220 247 8 295 309 334 346 339 342 343 339 339 336 336 337 337 337 336 335 334 333 333 333 333 332 330 329 327 326 327 328 330 331 332 332 331 328 324 320 315 309 302 299 296 294 293 291 288 285 285 287 288 292 296 299 302 303 302 302 300 297 296 295 295 296 296 297 298 301 305 310 315 318 322 323 325 328 329 327 326 329 330 323 311 295 277 261
319 322 318 310 305 295 297 290 264 243 227 245 146 270 306 335 348 336 340 342 337 337 335 335 337 337 337 337 335 335 333 334 334 334 333 331 329 328 326 326 327 328 330 331 332 331 329 326 321 317 312 304 299 296 293 292 290 287 284 282 283 284 287 290 293 297 299 299 299 298 296 295 294 293 293 293 294 295 297 301 305 310 314 317 320 321 324 328 328 325 326 330 330 324 313 295 273